Young Endeavour — VMGW — position and weather

sailwx.info

Track history (hours):
 
Tides and Currents Weather Stations Pressure Air Temp Water Temp Dewpoint Dewpoint Depression Visibility Wind Speed Wind Dir Waves Ship Positions

Young Endeavour (Australia)

Ship's website: http://www.youngendeavour.gov.au/

Last reported at 2020-Jan-25 01:00 UTC. Time now 2020-Jan-25 03:07 UTC.
Position S 12°32' E 130°57'.

Length 44 m; beam 7.8 m; draft 4 m.

Type: Other ship. MMSI: 503000136.

Date/timePositionNaut miles runAvg speedWind from/ knotsBaromVisibWave heightAir tempDewpointWater temp
2020-Jan-25 01:00S 12°32' E 130°57'0 0.0
2020-Jan-25 00:30S 12°32' E 130°57'0 0.0
2020-Jan-24 22:58S 12°32' E 130°57'0 0.0
2020-Jan-24 20:30S 12°32' E 130°57'0 0.0
2020-Jan-24 20:00S 12°32' E 130°57'0 0.0
2020-Jan-24 19:24S 12°32' E 130°57'0 0.0
2020-Jan-24 15:58S 12°32' E 130°57'0 0.1
2020-Jan-24 15:00S 12°32' E 130°57'0 0.0
2020-Jan-24 14:00S 12°32' E 130°57'0 0.0
2020-Jan-24 12:00S 12°32' E 130°57'0 0.0
2020-Jan-24 10:57S 12°32' E 130°57'0 0.0
2020-Jan-24 10:30S 12°32' E 130°57'0 0.1
2020-Jan-24 09:57S 12°32' E 130°57'0 0.0
2020-Jan-24 07:30S 12°32' E 130°57'0 0.0
2020-Jan-24 07:00S 12°32' E 130°57'0 0.0
2020-Jan-24 03:30S 12°32' E 130°57'0 0.0
2020-Jan-24 02:30S 12°32' E 130°57'0 0.0
2020-Jan-24 00:27S 12°32' E 130°57'0 0.0
2020-Jan-23 23:30S 12°32' E 130°57'0 0.0
2020-Jan-23 22:00S 12°32' E 130°57'  
2020-Jan-20 00:33S 12°32' E 130°57'0 0.1
2020-Jan-19 23:30S 12°32' E 130°57'0 0.0
2020-Jan-19 20:57S 12°32' E 130°57'0 0.0
2020-Jan-19 19:00S 12°32' E 130°57'0 0.0
2020-Jan-19 18:30S 12°32' E 130°57'0 0.0
2020-Jan-19 16:30S 12°32' E 130°57'0 0.0
2020-Jan-19 13:00S 12°32' E 130°57'0 0.0
2020-Jan-19 10:57S 12°32' E 130°57'0 0.1
2020-Jan-19 10:30S 12°32' E 130°57'0 0.1
2020-Jan-19 10:00S 12°32' E 130°57'0 0.0
2020-Jan-19 08:30S 12°32' E 130°57'0 0.0
2020-Jan-19 06:30S 12°32' E 130°57'20441027.1
2020-Jan-19 04:30S 43°15' E 147°36'2044237353.2
2020-Jan-19 04:30S 12°32' E 130°57'20382067.4
2020-Jan-19 03:31S 43°10' E 147°33'2038126503.6
2020-Jan-19 03:30S 12°32' E 130°57'2025815.4
2020-Jan-19 01:01S 43°00' E 147°22'2025142969.6
2020-Jan-19 01:00S 12°32' E 130°57'20234163.0
2020-Jan-19 00:31S 42°56' E 147°23'202331249.4
2020-Jan-19 00:27S 12°32' E 130°57'0 0.0
2020-Jan-18 21:59S 12°32' E 130°57'0 0.0
2020-Jan-18 21:30S 12°32' E 130°57'0 0.1
2020-Jan-18 20:30S 12°32' E 130°56'0 0.1
2020-Jan-18 19:27S 12°32' E 130°57'0 0.0
2020-Jan-18 17:57S 12°32' E 130°56'0 0.1
2020-Jan-18 17:30S 12°32' E 130°56'0 0.1
2020-Jan-18 16:30S 12°32' E 130°57'0 0.0
2020-Jan-18 15:30S 12°32' E 130°57'0 0.0
2020-Jan-18 15:00S 12°32' E 130°57'0 0.0
2020-Jan-18 13:30S 12°32' E 130°57'0 0.0
2020-Jan-18 10:26S 12°32' E 130°57'0 0.0
2020-Jan-18 10:00S 12°32' E 130°57'0 0.0
2020-Jan-18 06:27S 12°32' E 130°57'0 0.0
2020-Jan-18 05:51S 12°32' E 130°57'0 0.0
2020-Jan-18 04:00S 12°32' E 130°57'0 0.0
2020-Jan-18 01:59S 12°32' E 130°57'0 0.0
2020-Jan-18 00:57S 12°32' E 130°57'0 0.0
2020-Jan-18 00:00S 12°32' E 130°57'0 0.0
2020-Jan-17 19:59S 12°32' E 130°56'0 0.0
2020-Jan-17 18:30S 12°32' E 130°56'0 0.0
2020-Jan-17 17:29S 12°32' E 130°56'0 0.0
2020-Jan-17 16:29S 12°32' E 130°56'0 0.0
2020-Jan-17 15:00S 12°32' E 130°56'0 0.0
2020-Jan-17 11:30S 12°32' E 130°57'0 0.0
2020-Jan-17 08:29S 12°32' E 130°57'0 0.0
2020-Jan-17 07:00S 12°32' E 130°56'0 0.0
2020-Jan-17 05:00S 12°32' E 130°56'0 0.0
2020-Jan-17 04:29S 12°32' E 130°56'0 0.0
2020-Jan-17 04:00S 12°32' E 130°56'0 0.0
2020-Jan-17 02:26S 12°32' E 130°56'0 0.0
2020-Jan-17 00:26S 12°32' E 130°57'0 0.0
2020-Jan-16 17:29S 12°32' E 130°56'0 0.0
2020-Jan-16 16:59S 12°32' E 130°56'0 0.0
2020-Jan-16 13:59S 12°32' E 130°56'0 0.1
2020-Jan-16 12:59S 12°32' E 130°57'0 0.0
2020-Jan-16 12:29S 12°32' E 130°57'0 0.0
2020-Jan-16 12:00S 12°32' E 130°57'0 0.0
2020-Jan-16 10:59S 12°32' E 130°57'0 0.0
2020-Jan-16 09:29S 12°32' E 130°57'0 0.0
2020-Jan-16 08:29S 12°32' E 130°57'0 0.0
2020-Jan-16 04:28S 12°32' E 130°56'0 0.1
2020-Jan-16 03:58S 12°32' E 130°56'0 0.0
2020-Jan-16 02:58S 12°32' E 130°56'0 0.0
2020-Jan-16 02:28S 12°32' E 130°56'0 0.0
2020-Jan-16 01:28S 12°32' E 130°56'0 0.0
2020-Jan-15 23:28S 12°32' E 130°57'20199968.5
2020-Jan-15 23:16S 42°53' E 147°20'0 0.0
2020-Jan-15 22:28S 42°53' E 147°20'201944311.3
2020-Jan-15 22:25S 12°32' E 130°57'0 0.0
2020-Jan-15 19:58S 12°32' E 130°57'20197933.5
2020-Jan-15 19:43S 42°53' E 147°20'20198092.5
2020-Jan-15 19:28S 12°32' E 130°57'201920130.4
2020-Jan-15 19:22S 42°53' E 147°20'20191442.7
2020-Jan-15 17:58S 12°32' E 130°56'0 0.0
2020-Jan-15 13:55S 12°32' E 130°56'0 0.1
2020-Jan-15 12:10S 12°32' E 130°57'0 0.0
2020-Jan-15 11:16S 12°32' E 130°57'0 0.0
2020-Jan-15 09:28S 12°32' E 130°57'0 0.0
2020-Jan-15 08:28S 12°32' E 130°57'0 0.0
2020-Jan-15 04:58S 12°32' E 130°56'0 0.0
2020-Jan-15 03:28S 12°32' E 130°56'0 0.0
2020-Jan-15 02:28S 12°32' E 130°56'0 0.0
2020-Jan-15 01:25S 12°32' E 130°56'  
Track history (hours):
 
Tides and Currents Weather Stations Pressure Air Temp Water Temp Dewpoint Dewpoint Depression Visibility Wind Speed Wind Dir Waves Ship Positions

Young Endeavour (Australia)

Ship's website: http://www.youngendeavour.gov.au/

Last reported at 2020-Jan-25 01:00 UTC. Time now 2020-Jan-25 03:07 UTC.
Position S 12°32' E 130°57'.

Length 44 m; beam 7.8 m; draft 4 m.

Type: Other ship. MMSI: 503000136.

Date/timePositionNaut miles runAvg speedWind from/ knotsBaromVisibWave heightAir tempDewpointWater temp
2020-Jan-25 01:00S 12°32' E 130°57'0 0.0
2020-Jan-25 00:30S 12°32' E 130°57'0 0.0
2020-Jan-24 22:58S 12°32' E 130°57'0 0.0
2020-Jan-24 20:30S 12°32' E 130°57'0 0.0
2020-Jan-24 20:00S 12°32' E 130°57'0 0.0
2020-Jan-24 19:24S 12°32' E 130°57'0 0.0
2020-Jan-24 15:58S 12°32' E 130°57'0 0.1
2020-Jan-24 15:00S 12°32' E 130°57'0 0.0
2020-Jan-24 14:00S 12°32' E 130°57'0 0.0
2020-Jan-24 12:00S 12°32' E 130°57'0 0.0
2020-Jan-24 10:57S 12°32' E 130°57'0 0.0
2020-Jan-24 10:30S 12°32' E 130°57'0 0.1
2020-Jan-24 09:57S 12°32' E 130°57'0 0.0
2020-Jan-24 07:30S 12°32' E 130°57'0 0.0
2020-Jan-24 07:00S 12°32' E 130°57'0 0.0
2020-Jan-24 03:30S 12°32' E 130°57'0 0.0
2020-Jan-24 02:30S 12°32' E 130°57'0 0.0
2020-Jan-24 00:27S 12°32' E 130°57'0 0.0
2020-Jan-23 23:30S 12°32' E 130°57'0 0.0
2020-Jan-23 22:00S 12°32' E 130°57'  
2020-Jan-20 00:33S 12°32' E 130°57'0 0.1
2020-Jan-19 23:30S 12°32' E 130°57'0 0.0
2020-Jan-19 20:57S 12°32' E 130°57'0 0.0
2020-Jan-19 19:00S 12°32' E 130°57'0 0.0
2020-Jan-19 18:30S 12°32' E 130°57'0 0.0
2020-Jan-19 16:30S 12°32' E 130°57'0 0.0
2020-Jan-19 13:00S 12°32' E 130°57'0 0.0
2020-Jan-19 10:57S 12°32' E 130°57'0 0.1
2020-Jan-19 10:30S 12°32' E 130°57'0 0.1
2020-Jan-19 10:00S 12°32' E 130°57'0 0.0
2020-Jan-19 08:30S 12°32' E 130°57'0 0.0
2020-Jan-19 06:30S 12°32' E 130°57'20441027.1
2020-Jan-19 04:30S 43°15' E 147°36'2044237353.2
2020-Jan-19 04:30S 12°32' E 130°57'20382067.4
2020-Jan-19 03:31S 43°10' E 147°33'2038126503.6
2020-Jan-19 03:30S 12°32' E 130°57'2025815.4
2020-Jan-19 01:01S 43°00' E 147°22'2025142969.6
2020-Jan-19 01:00S 12°32' E 130°57'20234163.0
2020-Jan-19 00:31S 42°56' E 147°23'202331249.4
2020-Jan-19 00:27S 12°32' E 130°57'0 0.0
2020-Jan-18 21:59S 12°32' E 130°57'0 0.0
2020-Jan-18 21:30S 12°32' E 130°57'0 0.1
2020-Jan-18 20:30S 12°32' E 130°56'0 0.1
2020-Jan-18 19:27S 12°32' E 130°57'0 0.0
2020-Jan-18 17:57S 12°32' E 130°56'0 0.1
2020-Jan-18 17:30S 12°32' E 130°56'0 0.1
2020-Jan-18 16:30S 12°32' E 130°57'0 0.0
2020-Jan-18 15:30S 12°32' E 130°57'0 0.0
2020-Jan-18 15:00S 12°32' E 130°57'0 0.0
2020-Jan-18 13:30S 12°32' E 130°57'0 0.0
2020-Jan-18 10:26S 12°32' E 130°57'0 0.0
2020-Jan-18 10:00S 12°32' E 130°57'0 0.0
2020-Jan-18 06:27S 12°32' E 130°57'0 0.0
2020-Jan-18 05:51S 12°32' E 130°57'0 0.0
2020-Jan-18 04:00S 12°32' E 130°57'0 0.0
2020-Jan-18 01:59S 12°32' E 130°57'0 0.0
2020-Jan-18 00:57S 12°32' E 130°57'0 0.0
2020-Jan-18 00:00S 12°32' E 130°57'0 0.0
2020-Jan-17 19:59S 12°32' E 130°56'0 0.0
2020-Jan-17 18:30S 12°32' E 130°56'0 0.0
2020-Jan-17 17:29S 12°32' E 130°56'0 0.0
2020-Jan-17 16:29S 12°32' E 130°56'0 0.0
2020-Jan-17 15:00S 12°32' E 130°56'0 0.0
2020-Jan-17 11:30S 12°32' E 130°57'0 0.0
2020-Jan-17 08:29S 12°32' E 130°57'0 0.0
2020-Jan-17 07:00S 12°32' E 130°56'0 0.0
2020-Jan-17 05:00S 12°32' E 130°56'0 0.0
2020-Jan-17 04:29S 12°32' E 130°56'0 0.0
2020-Jan-17 04:00S 12°32' E 130°56'0 0.0
2020-Jan-17 02:26S 12°32' E 130°56'0 0.0
2020-Jan-17 00:26S 12°32' E 130°57'0 0.0
2020-Jan-16 17:29S 12°32' E 130°56'0 0.0
2020-Jan-16 16:59S 12°32' E 130°56'0 0.0
2020-Jan-16 13:59S 12°32' E 130°56'0 0.1
2020-Jan-16 12:59S 12°32' E 130°57'0 0.0
2020-Jan-16 12:29S 12°32' E 130°57'0 0.0
2020-Jan-16 12:00S 12°32' E 130°57'0 0.0
2020-Jan-16 10:59S 12°32' E 130°57'0 0.0
2020-Jan-16 09:29S 12°32' E 130°57'0 0.0
2020-Jan-16 08:29S 12°32' E 130°57'0 0.0
2020-Jan-16 04:28S 12°32' E 130°56'0 0.1
2020-Jan-16 03:58S 12°32' E 130°56'0 0.0
2020-Jan-16 02:58S 12°32' E 130°56'0 0.0
2020-Jan-16 02:28S 12°32' E 130°56'0 0.0
2020-Jan-16 01:28S 12°32' E 130°56'0 0.0
2020-Jan-15 23:28S 12°32' E 130°57'20199968.5
2020-Jan-15 23:16S 42°53' E 147°20'0 0.0
2020-Jan-15 22:28S 42°53' E 147°20'201944311.3
2020-Jan-15 22:25S 12°32' E 130°57'0 0.0
2020-Jan-15 19:58S 12°32' E 130°57'20197933.5
2020-Jan-15 19:43S 42°53' E 147°20'20198092.5
2020-Jan-15 19:28S 12°32' E 130°57'201920130.4
2020-Jan-15 19:22S 42°53' E 147°20'20191442.7
2020-Jan-15 17:58S 12°32' E 130°56'0 0.0
2020-Jan-15 13:55S 12°32' E 130°56'0 0.1
2020-Jan-15 12:10S 12°32' E 130°57'0 0.0
2020-Jan-15 11:16S 12°32' E 130°57'0 0.0
2020-Jan-15 09:28S 12°32' E 130°57'0 0.0
2020-Jan-15 08:28S 12°32' E 130°57'0 0.0
2020-Jan-15 04:58S 12°32' E 130°56'0 0.0
2020-Jan-15 03:28S 12°32' E 130°56'0 0.0
2020-Jan-15 02:28S 12°32' E 130°56'0 0.0
2020-Jan-15 01:25S 12°32' E 130°56'  

Dump ship's entire track history